Theta_e
298 298 298 297 297 297 296 296 296 296 295 295 295 296 297 297 298 297 295 300 292 286 287 289 289 285 285 284 279 283 282 283 284 280 280 280 280 282 282 284 282 282 282 282 283 281 280 296 298 291 296 301 302 304
299 299 299 298 297 297 296 296 296 296 295 295 294 295 296 297 298 298 292 299 297 289 287 292 293 293 292 290 286 286 283 284 285 281 281 281 279 283 281 278 286 280 283 280 283 285 288 291 290 295 297 299 300 302
298 299 299 298 298 297 296 296 296 296 295 294 294 295 296 297 298 298 295 297 292 288 288 288 288 293 296 295 295 284 286 287 286 289 284 283 279 283 278 280 281 285 288 284 284 285 287 289 291 292 294 296 300 302
298 299 298 298 297 297 296 296 296 295 295 294 294 295 296 297 298 298 294 297 293 289 282 285 294 292 296 295 294 293 290 291 290 289 284 282 280 286 281 282 281 285 287 284 285 286 287 288 289 290 292 297 301 302
299 299 299 298 298 297 296 296 296 295 295 294 294 295 296 297 298 298 299 299 297 287 282 283 290 292 294 292 291 292 291 289 287 284 283 281 284 285 285 284 282 288 284 282 280 287 285 287 290 291 291 296 301 300
299 299 298 298 297 297 296 296 296 295 295 294 294 295 296 297 298 296 285 294 296 293 284 280 289 289 291 291 290 289 291 289 288 286 284 285 288 285 281 279 287 290 291 290 287 289 289 290 293 293 292 296 301 300
299 298 298 297 297 297 296 296 295 295 294 294 295 296 296 297 297 288 288 292 294 294 284 281 282 289 291 290 289 290 291 290 288 286 284 284 284 286 283 278 285 287 288 289 291 289 288 291 290 295 293 297 301 301
298 298 298 297 296 296 296 296 295 295 294 294 295 296 297 297 296 292 295 295 295 289 287 279 280 284 291 285 285 291 287 287 287 285 286 284 285 286 280 284 287 288 289 288 291 291 292 294 292 293 294 295 299 298
298 298 298 297 296 296 296 295 295 294 294 295 296 296 296 294 288 292 293 293 294 288 281 282 278 278 289 286 287 289 289 282 287 284 284 285 283 279 283 285 286 287 287 288 289 292 291 291 291 291 293 292 294 297
298 298 298 297 296 296 296 295 295 294 294 295 294 287 285 290 294 293 290 285 285 286 287 281 285 281 286 285 284 284 286 282 279 283 287 283 281 286 288 289 291 291 291 292 289 287 288 290 289 291 292 292 293 297
298 298 297 296 296 296 295 295 294 293 295 291 285 286 293 294 292 289 283 282 284 280 285 284 285 282 288 282 281 285 281 282 276 279 280 279 279 284 289 289 291 292 293 293 292 292 291 292 290 291 291 290 291 294
298 298 297 296 296 296 295 295 293 293 291 289 292 294 295 289 285 280 280 282 280 278 284 282 284 286 286 288 284 284 279 280 274 284 280 276 282 287 287 287 290 291 292 293 292 291 292 292 293 294 291 289 290 292
298 298 297 296 296 296 295 294 293 295 295 292 289 285 283 284 276 276 274 278 279 284 285 284 283 286 287 287 283 282 277 276 285 279 277 280 284 287 288 287 289 291 291 291 291 293 294 293 293 294 291 291 291 290
298 298 297 296 296 295 294 293 296 296 294 287 282 277 279 278 279 280 281 281 285 285 285 285 285 284 286 283 282 277 280 281 276 274 276 281 283 288 290 289 289 289 290 290 289 290 290 290 289 290 289 288 287 289
298 298 296 296 295 294 293 295 296 295 292 286 285 278 280 284 286 286 287 286 287 288 286 285 284 285 283 280 281 280 276 274 276 276 281 286 288 289 289 289 289 289 290 290 291 292 292 292 291 291 290 292 290 287
298 296 295 296 295 293 295 296 294 295 291 287 285 282 285 284 287 287 286 285 288 288 288 286 282 280 278 280 277 276 275 274 279 282 285 288 288 289 289 290 290 290 290 290 291 291 291 292 291 293 294 294 287 286
296 293 296 296 294 294 296 293 292 288 286 284 284 288 286 286 287 287 288 287 291 286 282 282 278 277 282 278 277 280 278 282 285 284 285 289 288 289 290 290 290 291 290 291 291 291 291 292 293 292 291 293 294 294
292 295 295 294 295 295 293 292 289 286 282 285 283 286 287 289 287 287 288 289 287 285 284 281 284 278 277 275 277 282 285 287 290 290 290 290 290 291 290 290 291 291 291 291 291 292 292 291 291 291 292 293 294 294
294 295 295 295 296 292 287 288 289 282 284 286 288 288 288 289 290 290 290 290 290 289 286 284 280 278 279 282 283 286 288 288 287 289 291 291 290 291 291 291 291 291 291 291 291 291 292 292 292 293 293 293 292 292
296 295 295 296 296 290 285 286 291 285 282 286 288 287 288 288 290 291 290 290 289 287 283 281 281 284 284 286 288 288 289 289 287 287 287 291 292 292 292 292 292 292 292 292 292 288 292 292 292 292 291 289 288 288
293 294 295 295 292 291 287 285 284 285 286 284 288 288 287 290 289 289 289 291 287 285 283 286 287 289 291 291 291 291 291 291 290 290 289 289 292 291 291 292 293 292 292 292 292 291 289 289 288 289 288 287 287 286
292 293 289 290 287 288 286 288 286 289 286 286 287 288 285 285 286 288 290 286 284 287 290 290 289 290 289 289 289 290 290 291 292 292 288 289 290 290 291 293 293 291 291 291 291 289 287 287 286 286 285 285 284 283
291 291 289 287 283 282 282 290 284 284 281 282 286 283 283 284 287 290 283 286 287 292 293 292 290 290 289 289 289 289 290 289 289 289 290 290 291 292 292 292 291 289 287 288 288 287 285 284 284 284 283 283 283 282
291 286 283 282 282 280 284 282 284 282 283 281 281 279 282 285 288 284 281 285 291 293 291 290 290 289 289 288 286 287 287 288 287 287 288 287 286 288 290 289 289 288 287 287 286 285 284 283 283 282 282 281 282 281
279 279 282 278 283 280 278 278 279 280 278 281 280 280 283 287 282 281 281 286 291 290 291 291 290 289 285 285 286 287 288 288 286 285 288 287 286 286 286 287 286 286 286 284 282 282 281 282 282 281 281 281 280 280
275 279 278 279 279 278 278 276 278 279 279 279 280 283 285 283 279 279 283 290 289 287 287 289 288 287 287 286 285 285 286 287 286 284 286 287 285 284 283 283 284 283 285 283 282 280 280 280 280 280 280 280 280 280
275 277 280 285 283 282 280 282 282 281 279 278 280 281 282 277 277 284 292 293 292 294 293 292 291 289 288 288 288 288 287 287 284 284 286 287 286 286 284 282 281 282 284 283 281 280 279 279 279 279 280 280 281 281
280 281 276 280 281 282 279 280 280 279 281 283 283 279 278 279 282 291 292 295 294 294 293 292 291 290 289 288 288 287 286 285 284 284 285 285 285 285 284 284 283 280 282 282 281 281 281 280 279 279 279 279 281 282
280 282 282 278 280 281 281 280 281 283 285 285 282 282 283 287 293 293 293 294 294 292 289 287 286 287 286 285 285 285 285 283 281 280 279 280 281 282 284 283 282 282 282 282 281 281 280 280 280 279 280 281 282 282
280 283 280 279 277 277 282 285 285 287 289 289 289 288 288 290 289 293 293 292 289 286 286 286 286 284 284 282 282 281 283 284 284 283 281 281 283 284 284 282 282 282 282 281 281 281 281 282 282 282 281 281 281 280
283 283 280 280 278 283 287 286 285 286 286 285 285 284 285 287 288 290 291 290 288 286 285 284 285 285 284 284 283 282 281 283 283 283 284 285 285 283 283 282 282 282 281 281 280 280 280 280 280 279 279 278 279 278
283 280 279 277 280 283 285 284 284 283 284 282 283 284 284 282 281 288 289 287 285 285 285 285 285 284 286 286 286 286 285 285 284 283 282 283 283 283 282 282 281 281 281 280 280 280 280 279 279 278 278 277 277 277
281 282 281 280 280 279 281 281 280 280 282 281 283 284 284 283 280 287 287 287 286 286 286 286 286 286 286 286 285 285 284 284 284 283 283 283 283 282 282 282 281 281 280 280 280 279 279 278 278 277 277 277 276 276
Wind_Speed
13 13 12 11 10 9 10 11 11 11 13 14 14 14 16 16 16 10 8 7 3 4 15 15 18 18 15 12 10 14 10 5 6 5 4 4 4 4 4 5 3 6 4 6 8 7 10 21 7 9 10 16 16 14
15 14 13 12 11 10 10 10 10 11 12 14 13 13 15 17 18 15 6 6 2 5 11 18 21 19 16 18 9 10 9 13 4 5 5 6 7 5 8 5 7 4 4 5 5 3 10 13 13 18 22 15 14 14
11 11 11 10 12 10 10 10 10 11 12 14 14 13 15 18 19 15 6 5 1 3 10 9 10 1 12 10 5 8 3 4 8 6 4 5 5 8 7 5 10 6 1 3 10 12 15 10 16 21 21 23 17 17
11 11 11 10 10 10 10 10 10 11 12 13 14 14 15 17 19 17 6 5 2 4 5 7 6 13 13 4 10 10 11 9 7 6 4 4 6 7 10 12 10 8 4 8 6 14 12 13 19 18 22 22 21 17
12 11 11 11 12 11 10 9 9 10 12 13 14 13 15 17 19 13 7 2 3 2 6 10 16 11 5 4 6 6 8 7 5 3 3 7 7 6 8 8 6 4 1 4 4 8 5 14 17 17 19 21 19 15
12 11 11 10 10 9 9 9 9 10 12 13 14 14 16 17 18 4 2 4 3 1 3 5 10 14 4 3 7 6 8 7 4 2 4 5 13 3 5 7 3 6 7 6 3 5 8 11 12 12 18 20 20 13
12 12 11 10 9 9 9 9 8 10 12 14 13 14 16 18 9 2 4 4 4 2 3 5 6 1 11 7 2 2 6 2 3 3 4 7 10 1 3 8 13 11 6 4 6 6 10 9 9 13 16 20 13 15
12 12 12 10 9 10 9 8 9 11 13 13 14 16 19 16 11 4 2 1 2 1 3 4 5 4 5 5 2 3 3 1 3 4 5 6 7 3 4 10 12 10 8 7 4 2 1 5 10 12 16 16 9 14
13 12 12 10 10 9 9 8 9 11 13 14 13 15 5 2 1 1 1 2 3 3 4 4 5 5 7 8 6 3 2 3 4 4 7 4 3 5 9 10 10 12 12 11 6 7 2 5 8 11 14 15 14 8
13 13 12 10 10 10 9 9 9 11 13 14 7 1 1 2 4 2 2 1 1 2 4 5 8 6 5 7 5 6 1 3 3 1 3 3 5 4 5 12 15 15 12 13 15 6 2 6 5 8 10 12 13 8
14 14 13 11 11 10 9 9 8 11 9 2 0 2 2 2 3 3 2 2 1 3 4 7 7 8 5 5 6 3 3 4 4 1 3 1 2 9 15 15 15 16 16 16 14 5 5 3 6 7 7 10 11 13
17 16 14 12 12 10 10 8 7 4 2 2 5 2 1 3 3 3 3 3 5 3 3 5 5 7 5 3 2 3 3 4 4 6 3 2 2 12 15 19 16 16 17 16 3 4 6 5 9 10 10 6 10 10
16 16 15 13 12 10 10 10 10 12 8 2 3 1 2 3 4 4 3 4 3 3 3 5 4 4 2 2 3 3 3 4 8 2 3 2 4 8 10 12 8 11 14 14 18 17 15 12 9 7 9 7 5 9
17 16 15 13 11 9 9 11 14 5 5 5 5 5 5 5 6 5 8 5 2 3 6 6 5 2 2 2 3 3 4 4 4 3 4 4 12 6 7 7 6 6 11 12 12 11 10 9 6 4 5 5 1 4
18 16 15 13 11 9 8 9 12 5 4 5 4 5 8 8 7 6 5 6 6 5 6 6 6 2 3 3 3 4 3 4 5 2 5 7 6 9 6 7 7 7 7 7 8 8 5 3 2 3 2 3 4 2
18 14 11 12 12 10 8 11 4 4 3 4 7 6 7 6 4 5 6 7 7 6 5 3 3 3 3 3 3 4 4 4 3 3 6 1 10 5 10 6 5 4 6 7 8 8 8 4 3 3 2 2 3 3
19 5 15 18 11 8 15 5 3 5 5 6 5 5 9 8 6 7 6 8 7 5 6 3 4 5 3 4 4 4 4 5 2 2 10 8 7 7 8 5 1 5 3 5 5 5 4 5 5 6 7 5 3 1
3 10 15 17 14 8 3 4 4 5 8 7 8 7 8 7 8 8 8 8 7 7 7 8 5 7 6 9 10 6 5 2 6 6 5 5 6 7 6 7 6 5 7 8 8 8 7 8 7 6 8 7 6 6
12 12 19 18 12 6 6 5 4 5 7 6 6 7 8 7 7 8 7 8 7 6 1 4 6 7 8 7 10 9 6 9 8 8 6 6 5 6 7 7 6 7 9 7 8 7 7 9 8 7 7 8 7 8
12 19 18 21 17 6 5 4 4 5 5 4 5 7 7 7 7 7 7 6 6 2 5 6 9 9 8 10 10 11 10 3 3 10 9 9 6 8 9 7 4 4 10 7 7 7 7 7 7 9 8 8 7 7
12 8 13 12 4 4 2 4 5 4 4 4 3 4 5 6 6 6 6 5 4 4 6 7 9 8 10 8 8 9 9 10 9 9 8 6 6 7 7 7 8 6 6 5 5 5 5 5 5 6 6 5 5 6
8 15 4 3 3 4 5 5 4 1 3 4 5 5 5 4 5 4 3 4 5 8 7 7 7 7 6 7 6 8 9 10 9 8 7 6 6 5 5 4 4 4 4 4 4 3 3 4 4 5 5 5 6 7
14 6 5 4 4 6 5 4 6 4 4 3 3 3 3 3 3 3 4 5 5 6 6 5 4 5 6 7 7 6 8 8 7 6 5 6 6 5 5 4 3 2 2 3 2 2 3 5 4 5 5 5 5 6
13 7 8 8 9 6 5 5 5 5 6 8 4 3 3 3 4 3 6 6 5 5 5 6 5 5 4 4 3 2 1 3 5 4 4 4 5 5 4 4 3 3 3 4 4 4 4 4 5 4 4 6 5 5
8 7 6 7 7 7 7 7 10 8 8 8 9 5 3 5 3 5 7 3 5 5 5 4 4 4 4 5 3 2 2 2 4 3 2 1 2 3 3 2 2 3 3 3 4 4 4 3 4 5 6 6 7 8
7 8 11 14 8 8 9 9 10 11 8 6 5 5 4 3 4 6 4 3 4 6 4 3 3 4 4 4 5 3 3 1 1 4 3 0 1 3 3 4 1 2 3 2 3 3 4 5 5 6 5 8 8 8
9 8 8 6 8 7 6 7 7 10 10 7 5 5 5 5 7 5 3 4 5 4 6 6 5 5 4 2 2 2 2 1 1 3 2 2 2 2 2 2 3 3 2 3 2 3 4 5 5 5 5 6 6 6
6 9 14 13 8 9 9 8 10 9 8 6 6 9 6 7 4 2 2 4 5 5 4 3 2 1 1 1 1 3 2 2 1 4 3 2 1 1 1 1 2 2 1 1 2 3 4 4 4 5 5 6 6 6
8 10 9 10 10 7 9 9 7 7 6 7 11 9 5 3 2 3 3 5 4 5 4 4 3 1 2 2 2 2 2 3 6 7 7 4 4 3 2 2 1 1 1 1 3 2 3 3 4 4 6 4 4 5
11 10 7 11 7 11 8 7 6 6 7 7 6 6 3 3 2 2 4 5 6 6 6 6 5 6 6 6 5 5 4 3 3 4 3 2 2 5 4 3 2 1 0 1 1 1 1 2 2 2 4 5 5 6
9 9 7 8 7 8 3 3 2 1 0 1 2 2 5 2 2 5 7 6 6 5 5 7 6 7 7 7 6 5 6 7 8 8 3 1 2 3 3 3 2 2 1 1 1 1 2 2 3 5 6 7 8 7
8 13 9 9 6 5 5 6 5 6 5 7 6 4 3 4 6 5 7 8 8 8 9 8 8 8 7 4 4 2 1 5 7 6 7 5 4 4 4 3 3 3 3 3 3 3 2 3 3 5 5 7 7 8
6 8 7 6 6 9 7 6 6 8 9 11 10 9 9 7 8 2 3 5 6 7 8 8 6 5 8 8 7 6 6 5 6 6 6 4 7 6 4 4 4 4 4 4 4 4 4 5 5 5 5 5 6 6
Wind_Direction
278 282 286 274 287 302 313 314 329 329 337 342 339 334 333 338 333 326 305 324 298 271 293 285 320 318 312 316 326 326 322 329 317 317 300 344 301 2 321 351 1 186 216 187 208 236 244 359 21 11 340 338 337 333
275 273 274 269 274 284 301 304 318 322 329 334 335 327 326 330 331 336 290 322 5 255 283 298 289 277 277 272 306 309 293 320 336 338 356 323 313 314 336 309 23 63 1 315 324 24 358 7 359 342 354 349 339 325
277 274 271 280 268 267 287 296 306 314 323 330 329 323 318 325 329 334 298 319 287 278 283 283 309 358 246 262 268 287 327 300 334 344 330 304 311 341 346 344 357 24 4 297 316 13 5 21 344 355 346 327 343 334
269 269 261 265 271 263 277 291 299 308 317 323 323 321 318 322 329 330 302 296 252 292 286 296 294 305 320 267 246 250 293 296 304 326 304 289 308 315 316 309 313 317 354 334 312 8 344 360 352 341 327 323 343 346
264 257 255 261 267 259 267 282 290 302 313 320 320 315 314 318 324 315 297 311 136 309 325 305 298 269 288 336 305 290 276 277 289 304 274 291 295 333 308 303 297 19 353 6 330 346 345 322 326 327 326 327 336 343
254 247 248 263 271 251 263 277 285 302 313 319 317 311 313 320 327 328 318 29 92 67 293 302 323 330 270 274 293 334 305 277 287 272 285 272 284 269 303 301 91 256 215 205 295 306 339 338 321 336 325 330 323 14
241 237 242 252 265 249 263 273 283 302 312 316 313 309 310 314 308 246 316 352 337 96 268 291 297 340 352 296 329 331 300 269 257 270 244 263 273 306 266 285 303 295 327 319 240 354 336 351 333 347 335 320 327 30
230 234 235 244 249 251 266 270 284 302 312 311 309 308 309 304 288 261 133 300 317 265 256 281 283 349 296 317 336 196 266 296 238 244 268 276 293 280 256 277 299 308 316 328 80 87 344 308 356 349 331 345 1 21
225 226 223 231 240 249 261 264 285 303 309 307 313 311 287 303 358 332 5 229 244 275 302 281 300 333 331 329 316 167 252 254 240 231 251 263 246 225 245 278 283 304 321 315 304 173 347 328 334 355 341 355 352 43
219 215 217 222 232 243 252 259 285 305 303 303 296 323 238 296 100 177 190 281 260 243 231 266 300 314 342 334 327 324 250 279 272 229 283 243 274 347 303 355 17 1 337 321 311 257 171 290 19 349 359 6 353 24
209 210 215 219 231 240 243 256 292 306 298 27 163 259 249 115 253 237 287 273 199 245 216 247 271 310 307 332 338 304 321 276 292 313 289 209 23 355 45 20 0 353 336 302 287 263 183 275 93 81 21 22 6 12
210 212 214 217 229 237 238 254 279 272 218 209 283 260 134 250 251 267 253 238 241 262 249 301 353 328 327 336 316 295 291 303 292 329 319 16 264 76 59 42 21 357 349 356 4 192 189 168 111 104 88 28 3 51
204 206 209 215 226 230 243 267 263 259 280 217 218 250 258 173 254 234 221 233 248 259 267 308 0 300 331 313 267 267 283 266 294 295 268 66 255 99 63 45 49 351 52 48 45 44 45 60 88 97 105 114 15 33
198 199 202 212 216 224 259 278 272 192 200 200 184 213 233 186 238 222 248 305 320 338 317 317 329 0 297 276 280 269 287 323 277 313 41 216 265 128 115 80 338 48 37 61 60 61 61 62 66 65 113 149 146 55
192 192 198 208 209 227 251 282 164 187 251 220 211 241 217 237 247 274 306 314 311 311 309 309 312 308 285 276 266 281 265 263 262 23 12 338 41 52 39 75 62 19 27 43 64 90 78 51 185 146 220 225 123 74
183 183 201 194 202 219 241 173 194 245 244 240 236 238 269 268 265 291 282 276 282 292 303 339 314 284 259 257 244 236 252 266 359 5 230 131 345 110 225 74 48 34 12 20 18 23 24 10 354 334 260 208 164 186
167 194 176 188 191 206 170 166 219 236 237 232 229 240 267 275 256 254 247 256 267 283 277 256 254 244 272 243 242 231 296 2 229 51 263 2 342 344 330 326 49 314 345 356 341 343 334 322 335 346 343 10 237 54
160 152 148 160 168 142 174 211 236 235 243 242 257 256 250 252 259 261 266 277 281 278 273 258 256 241 259 275 287 297 273 278 297 303 323 338 346 348 338 329 337 338 342 313 310 312 329 334 341 334 318 326 326 346
172 158 166 174 175 162 169 212 232 259 243 249 254 259 262 268 270 271 269 269 269 276 160 244 232 244 257 259 280 290 316 329 336 316 317 303 300 298 293 292 289 292 290 313 328 326 331 335 334 338 352 353 343 339
152 144 171 177 188 193 194 204 205 252 264 245 250 257 260 263 268 271 268 275 269 248 210 231 246 261 268 260 271 286 292 275 220 285 299 297 314 329 322 323 357 355 294 331 340 342 355 338 344 348 355 344 331 331
129 132 154 168 195 239 242 203 213 243 259 253 264 267 268 278 273 270 271 269 262 219 241 246 255 268 279 285 286 283 283 286 280 276 277 305 327 325 311 311 323 329 328 342 337 346 358 350 342 341 346 341 335 325
124 121 110 132 188 223 237 218 243 334 237 239 250 240 252 260 269 260 252 238 250 248 252 264 272 283 282 284 299 302 299 302 295 290 283 286 283 288 303 321 322 335 2 351 7 353 351 347 356 339 320 312 315 311
131 140 141 144 179 201 243 203 209 227 234 244 199 208 224 227 224 167 243 222 236 230 245 242 248 261 263 266 276 300 308 303 295 300 325 315 323 329 323 349 52 356 16 4 9 343 20 18 350 339 323 317 313 307
129 158 175 184 197 198 176 193 208 225 223 223 228 223 254 226 155 237 243 253 222 182 206 227 239 266 283 276 269 281 359 332 304 300 305 332 310 322 338 344 18 48 29 8 20 21 7 339 332 325 325 317 316 319
136 176 195 186 191 182 191 198 208 217 220 216 225 243 210 162 200 243 244 221 172 191 207 219 226 236 262 273 277 234 213 272 293 296 315 315 314 299 324 327 107 93 41 355 359 339 327 331 344 341 338 336 340 343
173 174 195 179 174 189 190 190 195 204 201 215 236 207 189 175 227 241 240 189 152 184 173 181 225 250 243 231 256 245 184 188 298 285 285 260 351 304 300 306 304 124 49 12 352 344 331 341 345 350 344 340 352 345
180 176 186 205 184 187 193 191 198 197 204 204 205 217 170 213 231 231 161 162 174 146 172 189 216 245 270 272 202 177 183 168 262 318 313 309 301 284 307 292 338 53 7 40 352 338 336 340 346 340 342 342 341 348
194 170 172 187 189 188 210 196 197 203 210 209 202 191 206 211 230 132 128 127 127 152 145 155 179 257 285 239 138 166 156 99 234 251 246 237 205 189 184 40 65 43 5 32 4 353 6 345 339 336 339 330 352 2
182 159 150 179 189 197 206 201 205 202 219 221 217 211 212 234 64 122 144 151 158 159 153 166 203 142 139 193 225 234 200 194 215 210 225 237 179 185 159 157 139 108 54 323 153 36 359 332 336 348 322 340 357 22
167 159 166 168 189 206 206 193 210 210 243 265 254 219 223 174 170 244 177 181 191 195 196 193 181 180 200 202 202 197 216 215 234 254 240 238 133 127 140 186 201 171 207 294 319 12 250 310 19 28 36 37 42 46
152 169 164 174 203 199 178 123 107 99 334 255 329 295 268 2 269 219 217 203 199 198 193 210 206 199 200 200 205 200 213 205 214 219 230 214 138 150 163 186 184 172 180 204 184 149 105 78 69 64 60 60 57 57
156 185 175 188 182 126 139 187 198 214 206 208 227 200 226 229 245 222 183 180 197 207 210 213 216 221 195 186 165 142 110 146 177 188 190 200 174 144 152 167 162 174 180 179 158 156 157 131 103 95 79 67 63 64
139 156 175 195 171 173 173 192 212 235 226 228 222 214 221 233 251 194 170 198 202 200 203 201 189 162 169 169 176 175 171 166 158 164 162 158 152 157 167 171 171 169 175 164 144 147 153 145 133 116 101 92 81 74